Location: *
(46.1866°S, 178.5290°W)
Time: 07:19:41
(UTC+00:00)

Meteor 2-14 Rocket - Pass Details

Date: 19 May 2021
Orbit: 938 x 956 km, 82.5° (Epoch: 15 June)

Event Time Altitude Azimuth Distance (km) Brightness Sun altitude
Rises 06:15:52 0° 354° (N) 3,627 7.7 -18.4°
Reaches altitude 10° 06:18:21 10° 354° (N) 2,690 7.0 -18.9°
Maximum altitude 06:24:32 88° 81° (E) 974 4.4 -19.9°
Drops below altitude 10° 06:30:47 10° 170° (S) 2,721 6.7 -21.0°
Sets 06:33:19 0° 170° (S) 3,672 7.4 -21.4°
